This is the latest recevied weather packets stored in our database for station/object NO3U. If no packets are shown the sender has not sent any weather packets the latest 10 day(s).
| Time | Temp. | Humidity | Pressure | Rain* | Wind** | Luminosity | Snow |
|---|---|---|---|---|---|---|---|
| 1777382362 | 12.22° C | 93% | 1014.6 hPa | 0 mm | - | 54 W/m² | - |
| 1777382058 | 12.22° C | 92% | 1014.7 hPa | 0 mm | - | 54 W/m² | - |
| 1777381754 | 12.22° C | 94% | 1014.7 hPa | 0 mm | - | 49 W/m² | - |
| 1777381449 | 12.22° C | 95% | 1014.7 hPa | 0 mm | - | 56 W/m² | - |
| 1777381145 | 12.22° C | 94% | 1014.8 hPa | 0 mm | - | 47 W/m² | - |
| 1777380843 | 12.22° C | 94% | 1014.7 hPa | 0 mm | - | 43 W/m² | - |
| 1777380539 | 12.22° C | 94% | 1014.9 hPa | 0 mm | - | 42 W/m² | - |
| 1777380235 | 12.22° C | 94% | 1014.9 hPa | 0 mm | - | 40 W/m² | - |
| 1777379932 | 12.22° C | 94% | 1014.8 hPa | 0 mm | - | 35 W/m² | - |
| 1777379628 | 12.22° C | 95% | 1014.7 hPa | 0 mm | - | 44 W/m² | - |
| 1777379324 | 11.67° C | 95% | 1014.7 hPa | 0 mm | - | 57 W/m² | - |
| 1777379017 | 11.67° C | 95% | 1014.6 hPa | 0 mm | - | 64 W/m² | - |
| 1777378714 | 11.67° C | 96% | 1014.8 hPa | 0 mm | - | 56 W/m² | - |
| 1777378411 | 11.67° C | 95% | 1014.5 hPa | 0 mm | - | 56 W/m² | - |
| 1777378104 | 11.67° C | 96% | 1014.5 hPa | 0 mm | - | 44 W/m² | - |
| 1777377800 | 11.67° C | 95% | 1014.3 hPa | 0 mm | - | 45 W/m² | - |
| 1777377494 | 11.67° C | 96% | 1014.2 hPa | 0 mm | - | 62 W/m² | - |
| 1777377190 | 11.67° C | 95% | 1014.4 hPa | 0 mm | - | 46 W/m² | - |
| 1777376888 | 11.67° C | 96% | 1014.3 hPa | 0 mm | - | 34 W/m² | - |
| 1777376584 | 11.67° C | 97% | 1014.2 hPa | 0 mm | - | 22 W/m² | - |
| 1777376281 | 11.67° C | 96% | 1014.4 hPa | 0 mm | - | 17 W/m² | - |
| 1777375976 | 11.67° C | 97% | 1014.2 hPa | 0 mm | - | 13 W/m² | - |
| 1777375670 | 11.67° C | 97% | 1013.8 hPa | 0 mm | - | 16 W/m² | - |
| 1777375365 | 11.67° C | 96% | 1013.7 hPa | 1.78 mm | - | 15 W/m² | - |
| 1777375063 | 11.67° C | 95% | 1013.9 hPa | 3.05 mm | - | 8 W/m² | - |
* Rain latest hour (hover to see other rain measurements)
** Current wind speed in m/s (hover to see current wind gust speed)